Precipitable_Water
0.89 0.92 0.93 0.93 0.95 0.92 0.90 0.92 0.95 1.02 0.97 0.90 0.88 0.81 0.78 0.82 0.72 0.69 0.65 0.61 0.58 0.53 0.50 0.50 0.50 0.51 0.52 0.54 0.56 0.59 0.61 0.61 0.61 0.58 0.57 0.56 0.55 0.54 0.55 0.56 0.54 0.54 0.55 0.54 0.55 0.55 0.55 0.55 0.55 0.56 0.58 0.56 0.58 0.61 0.63 0.63 0.63 0.63 0.63 0.63 0.61 0.61 0.58 0.54 0.49 0.49 0.53 0.53 0.49 0.48 0.49 0.51 0.47 0.48 0.46 0.46 0.45 0.44 0.43 0.42 0.41 0.38 0.38 0.39 0.41
0.89 0.91 0.93 0.93 0.91 0.91 0.90 0.92 0.97 0.99 0.95 0.88 0.87 0.81 0.79 0.81 0.79 0.72 0.66 0.63 0.63 0.59 0.55 0.54 0.55 0.55 0.55 0.57 0.59 0.61 0.63 0.64 0.64 0.63 0.61 0.60 0.59 0.58 0.56 0.55 0.54 0.54 0.56 0.53 0.54 0.55 0.54 0.53 0.53 0.55 0.57 0.55 0.57 0.57 0.59 0.60 0.61 0.62 0.63 0.61 0.58 0.56 0.58 0.54 0.53 0.51 0.49 0.52 0.50 0.51 0.51 0.53 0.50 0.51 0.49 0.49 0.48 0.49 0.46 0.45 0.45 0.43 0.41 0.39 0.38
0.92 0.94 0.95 0.93 0.92 0.91 0.90 0.89 0.90 0.90 0.86 0.84 0.86 0.81 0.79 0.80 0.81 0.73 0.68 0.64 0.64 0.64 0.61 0.59 0.59 0.60 0.59 0.61 0.61 0.62 0.63 0.64 0.66 0.65 0.63 0.63 0.63 0.62 0.60 0.57 0.56 0.54 0.54 0.55 0.55 0.56 0.57 0.57 0.57 0.58 0.60 0.58 0.59 0.59 0.60 0.60 0.62 0.62 0.62 0.61 0.57 0.54 0.53 0.54 0.53 0.50 0.50 0.51 0.54 0.53 0.55 0.56 0.55 0.54 0.55 0.55 0.54 0.52 0.49 0.49 0.48 0.48 0.47 0.45 0.43
0.92 0.92 0.93 0.93 0.92 0.91 0.90 0.90 0.87 0.87 0.80 0.81 0.84 0.82 0.81 0.79 0.79 0.76 0.71 0.69 0.65 0.66 0.67 0.65 0.63 0.63 0.63 0.63 0.64 0.64 0.64 0.65 0.65 0.66 0.65 0.65 0.65 0.66 0.67 0.67 0.65 0.62 0.60 0.59 0.59 0.59 0.61 0.62 0.63 0.65 0.67 0.66 0.65 0.65 0.66 0.67 0.66 0.66 0.64 0.62 0.58 0.55 0.55 0.54 0.52 0.49 0.48 0.45 0.48 0.48 0.50 0.51 0.50 0.50 0.50 0.52 0.52 0.52 0.52 0.53 0.52 0.50 0.49 0.48 0.46
0.93 0.93 0.92 0.91 0.92 0.91 0.91 0.91 0.88 0.87 0.83 0.85 0.87 0.83 0.81 0.77 0.77 0.78 0.76 0.72 0.70 0.70 0.71 0.70 0.68 0.67 0.65 0.65 0.67 0.68 0.69 0.70 0.68 0.68 0.68 0.69 0.68 0.69 0.70 0.71 0.72 0.73 0.73 0.72 0.70 0.70 0.70 0.72 0.74 0.75 0.78 0.77 0.77 0.76 0.74 0.72 0.70 0.70 0.69 0.66 0.61 0.60 0.59 0.57 0.55 0.54 0.51 0.48 0.49 0.51 0.52 0.51 0.52 0.53 0.53 0.51 0.52 0.53 0.54 0.53 0.53 0.53 0.53 0.53 0.51
0.94 0.93 0.93 0.91 0.91 0.90 0.91 0.91 0.89 0.87 0.85 0.87 0.92 0.90 0.85 0.79 0.77 0.81 0.79 0.74 0.73 0.74 0.75 0.76 0.76 0.76 0.77 0.77 0.77 0.76 0.77 0.76 0.74 0.73 0.72 0.73 0.74 0.76 0.78 0.80 0.81 0.82 0.84 0.85 0.85 0.84 0.82 0.81 0.83 0.83 0.82 0.81 0.80 0.81 0.80 0.77 0.76 0.74 0.73 0.71 0.69 0.67 0.63 0.60 0.59 0.56 0.53 0.50 0.50 0.50 0.52 0.51 0.52 0.52 0.52 0.52 0.51 0.51 0.52 0.54 0.56 0.57 0.56 0.55 0.54
0.93 0.93 0.93 0.93 0.92 0.91 0.91 0.91 0.91 0.88 0.86 0.86 0.90 0.91 0.88 0.86 0.82 0.82 0.85 0.83 0.79 0.79 0.79 0.81 0.85 0.85 0.86 0.86 0.84 0.84 0.84 0.84 0.84 0.84 0.84 0.85 0.87 0.88 0.89 0.89 0.89 0.91 0.93 0.93 0.94 0.94 0.92 0.91 0.91 0.91 0.87 0.87 0.88 0.87 0.85 0.83 0.79 0.77 0.75 0.72 0.68 0.67 0.65 0.62 0.61 0.60 0.58 0.56 0.55 0.55 0.54 0.57 0.56 0.52 0.54 0.56 0.55 0.53 0.51 0.50 0.51 0.53 0.53 0.51 0.49
0.90 0.90 0.91 0.92 0.92 0.92 0.94 0.95 0.94 0.92 0.89 0.89 0.90 0.90 0.88 0.88 0.88 0.89 0.89 0.87 0.85 0.84 0.85 0.87 0.90 0.92 0.94 0.94 0.94 0.93 0.92 0.91 0.91 0.94 0.97 0.99 0.99 0.97 0.97 0.95 0.95 0.96 0.97 0.97 0.98 0.97 0.96 0.95 0.95 0.97 0.95 0.95 0.95 0.90 0.85 0.79 0.78 0.76 0.77 0.74 0.71 0.69 0.67 0.66 0.65 0.63 0.62 0.61 0.60 0.59 0.60 0.59 0.60 0.61 0.60 0.59 0.55 0.53 0.53 0.49 0.45 0.46 0.47 0.48 0.47
0.82 0.84 0.87 0.88 0.90 0.92 0.95 0.97 0.97 0.95 0.92 0.88 0.87 0.88 0.88 0.88 0.90 0.90 0.89 0.89 0.89 0.92 0.95 0.94 0.91 0.90 0.94 0.96 0.97 1.00 0.99 0.99 1.00 1.00 1.00 1.02 1.02 1.00 1.00 0.99 0.98 0.97 0.97 0.99 1.01 0.99 0.95 0.94 0.94 0.93 0.92 0.93 0.89 0.86 0.84 0.82 0.80 0.77 0.78 0.78 0.75 0.73 0.70 0.68 0.65 0.65 0.64 0.63 0.63 0.64 0.63 0.61 0.60 0.58 0.55 0.54 0.51 0.49 0.51 0.51 0.47 0.46 0.44 0.42 0.43
0.76 0.78 0.80 0.84 0.88 0.90 0.91 0.93 0.94 0.96 0.95 0.92 0.89 0.88 0.87 0.88 0.89 0.89 0.90 0.91 0.91 0.91 0.92 0.95 0.95 0.92 0.91 0.94 0.97 1.00 1.01 1.02 1.03 1.03 1.03 1.03 1.02 1.02 1.02 1.01 1.00 0.99 0.99 0.99 0.99 0.97 0.95 0.94 0.94 0.93 0.92 0.92 0.90 0.86 0.85 0.84 0.84 0.83 0.79 0.77 0.76 0.74 0.69 0.66 0.65 0.65 0.64 0.62 0.62 0.61 0.59 0.57 0.57 0.57 0.54 0.54 0.53 0.51 0.48 0.46 0.42 0.42 0.41 0.38 0.39
0.72 0.73 0.75 0.80 0.83 0.87 0.89 0.91 0.94 0.93 0.95 0.94 0.93 0.91 0.89 0.89 0.89 0.91 0.92 0.94 0.94 0.93 0.92 0.91 0.92 0.95 0.93 0.91 0.92 0.95 0.98 1.00 1.01 1.02 1.02 1.02 1.01 1.02 1.02 1.00 1.01 0.99 0.97 0.94 0.92 0.92 0.93 0.94 0.95 0.94 0.94 0.93 0.90 0.91 0.87 0.88 0.85 0.83 0.78 0.74 0.71 0.67 0.64 0.62 0.60 0.61 0.60 0.60 0.59 0.55 0.53 0.53 0.55 0.55 0.52 0.50 0.49 0.47 0.45 0.45 0.42 0.40 0.36 0.33 0.31
0.69 0.72 0.74 0.77 0.79 0.81 0.85 0.88 0.90 0.93 0.93 0.93 0.93 0.94 0.95 0.96 0.96 0.96 0.96 0.95 0.97 0.98 0.95 0.93 0.93 0.94 0.96 0.94 0.90 0.92 0.95 0.98 0.99 1.01 1.02 1.03 1.04 1.05 1.06 1.01 0.98 0.97 0.96 0.94 0.93 0.92 0.91 0.91 0.90 0.90 0.89 0.88 0.88 0.85 0.85 0.84 0.76 0.70 0.65 0.62 0.61 0.62 0.62 0.62 0.61 0.59 0.58 0.56 0.52 0.51 0.51 0.50 0.49 0.49 0.48 0.46 0.44 0.43 0.43 0.42 0.40 0.37 0.34 0.33 0.33
0.59 0.64 0.69 0.73 0.77 0.79 0.82 0.83 0.86 0.90 0.92 0.93 0.94 0.94 0.93 0.93 0.95 0.95 0.95 0.97 0.97 0.95 0.94 0.94 0.94 0.95 0.94 0.90 0.86 0.87 0.92 0.95 0.94 0.95 1.00 1.05 1.06 1.06 1.05 1.03 0.99 0.96 0.94 0.92 0.90 0.88 0.86 0.84 0.82 0.81 0.79 0.77 0.75 0.75 0.73 0.72 0.68 0.65 0.62 0.60 0.58 0.57 0.57 0.58 0.59 0.59 0.58 0.52 0.48 0.48 0.48 0.48 0.45 0.44 0.45 0.42 0.42 0.38 0.38 0.36 0.35 0.34 0.33 0.32 0.33
0.56 0.55 0.58 0.64 0.70 0.75 0.76 0.78 0.79 0.84 0.88 0.90 0.91 0.91 0.90 0.90 0.92 0.94 0.94 0.93 0.91 0.91 0.93 0.93 0.93 0.92 0.91 0.89 0.87 0.88 0.88 0.92 0.93 0.96 1.02 1.05 1.06 1.02 0.97 0.94 0.90 0.85 0.80 0.76 0.73 0.71 0.71 0.69 0.68 0.68 0.69 0.70 0.70 0.70 0.68 0.68 0.67 0.63 0.60 0.57 0.55 0.56 0.55 0.55 0.55 0.55 0.52 0.50 0.48 0.46 0.49 0.47 0.43 0.43 0.44 0.42 0.38 0.36 0.35 0.33 0.33 0.32 0.32 0.32 0.35
0.57 0.56 0.56 0.58 0.58 0.61 0.69 0.71 0.72 0.76 0.80 0.83 0.85 0.86 0.87 0.89 0.90 0.92 0.92 0.92 0.92 0.92 0.91 0.89 0.90 0.91 0.92 0.91 0.89 0.89 0.93 0.96 0.99 1.02 1.05 1.01 0.94 0.89 0.86 0.81 0.75 0.69 0.65 0.65 0.67 0.68 0.69 0.69 0.67 0.65 0.65 0.65 0.65 0.66 0.63 0.61 0.60 0.58 0.55 0.54 0.54 0.54 0.54 0.55 0.54 0.52 0.50 0.50 0.49 0.48 0.46 0.45 0.43 0.42 0.42 0.42 0.41 0.39 0.37 0.34 0.34 0.35 0.35 0.36 0.36
0.56 0.56 0.55 0.57 0.58 0.59 0.58 0.62 0.68 0.72 0.75 0.81 0.84 0.84 0.85 0.87 0.88 0.91 0.91 0.92 0.94 0.95 0.95 0.93 0.90 0.90 0.91 0.90 0.90 0.91 0.92 0.94 0.99 1.03 0.96 0.91 0.86 0.80 0.73 0.65 0.60 0.59 0.60 0.62 0.63 0.62 0.62 0.61 0.59 0.59 0.59 0.58 0.58 0.58 0.58 0.56 0.53 0.51 0.50 0.49 0.49 0.51 0.52 0.52 0.50 0.49 0.50 0.49 0.48 0.46 0.44 0.43 0.41 0.42 0.42 0.41 0.40 0.40 0.39 0.38 0.38 0.37 0.34 0.30 0.28
0.58 0.59 0.58 0.57 0.57 0.58 0.58 0.57 0.60 0.65 0.72 0.75 0.77 0.81 0.83 0.84 0.86 0.88 0.86 0.88 0.89 0.90 0.90 0.90 0.91 0.90 0.90 0.90 0.89 0.91 0.87 0.94 0.92 0.90 0.88 0.84 0.76 0.67 0.61 0.57 0.56 0.56 0.56 0.57 0.57 0.57 0.56 0.55 0.54 0.53 0.52 0.50 0.48 0.47 0.47 0.48 0.47 0.46 0.46 0.47 0.49 0.49 0.48 0.48 0.48 0.48 0.47 0.46 0.44 0.42 0.42 0.42 0.42 0.41 0.40 0.39 0.38 0.38 0.36 0.34 0.31 0.32 0.28 0.25 0.25
0.57 0.56 0.55 0.56 0.58 0.58 0.58 0.58 0.58 0.60 0.64 0.68 0.73 0.76 0.77 0.78 0.78 0.82 0.82 0.82 0.81 0.84 0.86 0.86 0.88 0.88 0.86 0.87 0.90 0.89 0.86 0.87 0.85 0.82 0.78 0.72 0.66 0.61 0.58 0.55 0.54 0.54 0.53 0.53 0.53 0.52 0.52 0.51 0.51 0.50 0.48 0.46 0.46 0.45 0.45 0.46 0.46 0.47 0.47 0.46 0.45 0.44 0.44 0.46 0.46 0.46 0.45 0.44 0.43 0.43 0.42 0.42 0.41 0.39 0.38 0.38 0.38 0.37 0.34 0.29 0.30 0.30 0.27 0.27 0.25
0.51 0.52 0.54 0.56 0.55 0.55 0.56 0.57 0.58 0.60 0.61 0.65 0.70 0.72 0.70 0.70 0.72 0.74 0.75 0.76 0.76 0.77 0.78 0.78 0.79 0.81 0.82 0.83 0.84 0.81 0.80 0.78 0.76 0.72 0.67 0.65 0.62 0.61 0.58 0.54 0.51 0.51 0.50 0.50 0.51 0.50 0.50 0.49 0.49 0.49 0.48 0.48 0.47 0.47 0.47 0.49 0.48 0.47 0.46 0.44 0.42 0.41 0.43 0.45 0.44 0.44 0.44 0.44 0.44 0.43 0.42 0.41 0.40 0.39 0.39 0.37 0.36 0.34 0.35 0.33 0.33 0.30 0.27 0.28 0.28
0.48 0.50 0.52 0.53 0.54 0.55 0.55 0.55 0.56 0.58 0.60 0.63 0.66 0.67 0.66 0.65 0.64 0.66 0.69 0.71 0.71 0.73 0.73 0.73 0.71 0.71 0.74 0.74 0.74 0.73 0.70 0.68 0.66 0.65 0.65 0.64 0.64 0.62 0.60 0.55 0.52 0.51 0.51 0.49 0.48 0.49 0.49 0.49 0.49 0.49 0.49 0.48 0.48 0.48 0.48 0.48 0.47 0.46 0.46 0.45 0.43 0.42 0.45 0.45 0.44 0.43 0.42 0.41 0.40 0.39 0.37 0.38 0.38 0.38 0.37 0.36 0.35 0.35 0.34 0.33 0.33 0.33 0.30 0.29 0.29
0.46 0.47 0.48 0.49 0.50 0.51 0.53 0.55 0.56 0.57 0.59 0.61 0.64 0.65 0.64 0.60 0.60 0.59 0.60 0.63 0.66 0.67 0.68 0.67 0.64 0.61 0.60 0.57 0.55 0.55 0.57 0.58 0.60 0.63 0.64 0.64 0.64 0.63 0.62 0.59 0.57 0.55 0.53 0.51 0.50 0.49 0.49 0.50 0.50 0.50 0.50 0.49 0.49 0.48 0.48 0.48 0.49 0.49 0.48 0.46 0.45 0.44 0.44 0.43 0.42 0.40 0.39 0.37 0.36 0.36 0.36 0.36 0.35 0.34 0.33 0.33 0.33 0.33 0.34 0.35 0.35 0.36 0.34 0.30 0.28
0.43 0.45 0.46 0.47 0.49 0.50 0.51 0.53 0.55 0.57 0.59 0.60 0.61 0.61 0.61 0.61 0.61 0.60 0.58 0.56 0.57 0.59 0.59 0.54 0.50 0.48 0.48 0.49 0.50 0.51 0.53 0.55 0.56 0.57 0.59 0.61 0.61 0.62 0.61 0.61 0.61 0.58 0.55 0.54 0.53 0.52 0.52 0.51 0.51 0.50 0.50 0.49 0.49 0.48 0.48 0.48 0.48 0.47 0.45 0.43 0.42 0.41 0.41 0.39 0.38 0.36 0.35 0.34 0.34 0.33 0.33 0.32 0.32 0.32 0.32 0.32 0.33 0.33 0.34 0.35 0.36 0.36 0.36 0.34 0.31
0.42 0.41 0.42 0.45 0.47 0.49 0.51 0.52 0.53 0.55 0.57 0.59 0.61 0.61 0.62 0.61 0.60 0.60 0.59 0.55 0.52 0.51 0.48 0.48 0.47 0.47 0.48 0.49 0.50 0.51 0.53 0.54 0.56 0.57 0.58 0.59 0.60 0.60 0.62 0.61 0.62 0.61 0.57 0.54 0.53 0.53 0.53 0.53 0.51 0.50 0.50 0.49 0.48 0.48 0.47 0.47 0.46 0.44 0.42 0.41 0.40 0.38 0.38 0.37 0.36 0.35 0.34 0.32 0.31 0.30 0.30 0.31 0.31 0.30 0.30 0.30 0.31 0.33 0.33 0.34 0.35 0.34 0.34 0.35 0.35
0.40 0.40 0.41 0.41 0.44 0.46 0.48 0.51 0.53 0.55 0.57 0.58 0.59 0.62 0.63 0.64 0.63 0.62 0.61 0.57 0.53 0.48 0.48 0.49 0.48 0.47 0.46 0.47 0.49 0.51 0.53 0.54 0.55 0.56 0.57 0.58 0.60 0.61 0.62 0.61 0.60 0.59 0.58 0.57 0.56 0.55 0.53 0.52 0.51 0.50 0.49 0.49 0.48 0.47 0.46 0.45 0.43 0.42 0.41 0.39 0.39 0.39 0.38 0.37 0.35 0.34 0.32 0.31 0.30 0.29 0.29 0.30 0.30 0.29 0.29 0.30 0.31 0.33 0.34 0.34 0.34 0.35 0.35 0.35 0.36
0.36 0.36 0.37 0.39 0.40 0.43 0.45 0.48 0.50 0.53 0.55 0.57 0.57 0.59 0.62 0.64 0.62 0.62 0.61 0.61 0.58 0.54 0.53 0.53 0.52 0.52 0.50 0.49 0.51 0.53 0.56 0.57 0.57 0.57 0.57 0.59 0.60 0.61 0.61 0.60 0.59 0.60 0.59 0.59 0.58 0.56 0.54 0.52 0.51 0.50 0.49 0.49 0.49 0.48 0.46 0.44 0.41 0.40 0.41 0.40 0.40 0.38 0.36 0.34 0.33 0.32 0.30 0.29 0.28 0.28 0.28 0.29 0.29 0.30 0.32 0.34 0.35 0.35 0.34 0.34 0.35 0.36 0.36 0.37 0.37
0.31 0.32 0.33 0.35 0.36 0.39 0.41 0.43 0.45 0.48 0.52 0.55 0.57 0.59 0.63 0.64 0.64 0.64 0.64 0.64 0.62 0.60 0.58 0.58 0.56 0.53 0.52 0.54 0.54 0.55 0.57 0.57 0.56 0.56 0.57 0.58 0.60 0.60 0.60 0.60 0.61 0.61 0.61 0.59 0.57 0.55 0.53 0.52 0.50 0.49 0.49 0.49 0.48 0.46 0.44 0.43 0.42 0.41 0.40 0.39 0.38 0.36 0.35 0.33 0.32 0.30 0.28 0.28 0.28 0.27 0.28 0.30 0.31 0.34 0.35 0.35 0.33 0.32 0.33 0.32 0.33 0.34 0.35 0.35 0.35
0.26 0.28 0.29 0.31 0.32 0.34 0.36 0.39 0.42 0.44 0.47 0.49 0.53 0.55 0.59 0.63 0.63 0.63 0.62 0.61 0.65 0.65 0.62 0.59 0.56 0.55 0.55 0.56 0.56 0.57 0.56 0.56 0.55 0.55 0.56 0.56 0.55 0.55 0.55 0.56 0.58 0.58 0.57 0.56 0.54 0.53 0.52 0.50 0.49 0.47 0.45 0.44 0.44 0.44 0.43 0.42 0.40 0.38 0.37 0.37 0.36 0.35 0.34 0.32 0.31 0.29 0.29 0.28 0.28 0.29 0.31 0.33 0.34 0.33 0.32 0.32 0.31 0.33 0.34 0.34 0.34 0.34 0.36 0.36 0.36
0.24 0.24 0.25 0.27 0.29 0.30 0.31 0.33 0.36 0.40 0.43 0.45 0.46 0.50 0.53 0.57 0.59 0.58 0.59 0.59 0.57 0.58 0.63 0.65 0.60 0.57 0.57 0.56 0.56 0.55 0.55 0.56 0.55 0.54 0.54 0.54 0.54 0.54 0.55 0.55 0.54 0.53 0.52 0.52 0.52 0.50 0.48 0.46 0.45 0.45 0.44 0.43 0.42 0.41 0.40 0.39 0.37 0.36 0.35 0.35 0.34 0.33 0.32 0.31 0.31 0.31 0.30 0.31 0.31 0.31 0.31 0.32 0.31 0.31 0.32 0.32 0.33 0.35 0.37 0.36 0.36 0.36 0.38 0.38 0.37
0.25 0.24 0.25 0.26 0.26 0.28 0.30 0.31 0.32 0.35 0.40 0.44 0.45 0.47 0.49 0.50 0.52 0.57 0.62 0.64 0.60 0.56 0.55 0.59 0.63 0.59 0.59 0.58 0.56 0.53 0.52 0.51 0.52 0.54 0.53 0.53 0.53 0.52 0.53 0.54 0.54 0.52 0.52 0.50 0.48 0.45 0.43 0.41 0.40 0.40 0.39 0.37 0.37 0.36 0.36 0.36 0.35 0.34 0.34 0.33 0.32 0.31 0.30 0.29 0.27 0.28 0.29 0.29 0.28 0.29 0.29 0.31 0.31 0.33 0.33 0.33 0.35 0.36 0.39 0.38 0.39 0.39 0.40 0.41 0.40
0.26 0.25 0.25 0.25 0.25 0.26 0.28 0.29 0.31 0.32 0.34 0.39 0.43 0.45 0.49 0.50 0.51 0.52 0.54 0.61 0.63 0.64 0.63 0.60 0.60 0.61 0.59 0.59 0.58 0.53 0.49 0.51 0.54 0.52 0.51 0.52 0.52 0.53 0.53 0.52 0.51 0.50 0.48 0.46 0.44 0.41 0.40 0.38 0.38 0.37 0.36 0.36 0.35 0.35 0.34 0.34 0.32 0.32 0.31 0.30 0.30 0.29 0.28 0.28 0.28 0.27 0.26 0.27 0.29 0.29 0.30 0.31 0.32 0.33 0.34 0.35 0.37 0.39 0.41 0.41 0.41 0.43 0.42 0.43 0.44
0.29 0.28 0.27 0.25 0.25 0.26 0.27 0.28 0.30 0.32 0.33 0.34 0.38 0.42 0.45 0.49 0.52 0.53 0.54 0.54 0.56 0.59 0.61 0.62 0.62 0.62 0.61 0.57 0.58 0.58 0.59 0.58 0.53 0.51 0.50 0.49 0.48 0.47 0.46 0.46 0.45 0.45 0.45 0.43 0.41 0.39 0.38 0.36 0.36 0.36 0.36 0.35 0.34 0.34 0.34 0.33 0.31 0.30 0.29 0.29 0.29 0.28 0.28 0.27 0.25 0.25 0.25 0.27 0.29 0.31 0.32 0.32 0.33 0.35 0.36 0.37 0.38 0.40 0.42 0.45 0.46 0.46 0.46 0.47 0.48
0.34 0.32 0.31 0.29 0.28 0.27 0.27 0.28 0.30 0.31 0.32 0.34 0.36 0.37 0.41 0.44 0.48 0.52 0.54 0.54 0.55 0.55 0.55 0.56 0.57 0.58 0.59 0.59 0.58 0.58 0.59 0.57 0.54 0.51 0.50 0.49 0.48 0.46 0.45 0.44 0.43 0.42 0.41 0.40 0.37 0.36 0.36 0.35 0.34 0.35 0.35 0.34 0.34 0.34 0.34 0.32 0.30 0.29 0.29 0.27 0.27 0.27 0.26 0.24 0.24 0.24 0.26 0.29 0.31 0.32 0.33 0.34 0.35 0.37 0.39 0.40 0.41 0.43 0.45 0.46 0.47 0.48 0.49 0.51 0.51
0.39 0.38 0.37 0.34 0.32 0.30 0.28 0.28 0.29 0.31 0.32 0.33 0.34 0.36 0.35 0.36 0.39 0.43 0.49 0.55 0.59 0.59 0.58 0.57 0.56 0.55 0.55 0.56 0.57 0.59 0.57 0.54 0.53 0.52 0.50 0.49 0.48 0.46 0.45 0.43 0.41 0.40 0.39 0.36 0.34 0.34 0.34 0.35 0.34 0.35 0.35 0.33 0.33 0.33 0.32 0.31 0.29 0.29 0.28 0.28 0.27 0.26 0.25 0.24 0.24 0.27 0.29 0.32 0.33 0.33 0.35 0.36 0.38 0.39 0.41 0.43 0.44 0.45 0.47 0.47 0.49 0.50 0.51 0.50 0.51
0.45 0.43 0.41 0.40 0.37 0.34 0.32 0.30 0.29 0.31 0.34 0.35 0.35 0.35 0.36 0.35 0.35 0.36 0.40 0.45 0.49 0.56 0.58 0.60 0.59 0.58 0.57 0.57 0.57 0.60 0.62 0.59 0.56 0.54 0.53 0.51 0.49 0.46 0.44 0.42 0.41 0.40 0.37 0.35 0.35 0.34 0.35 0.35 0.35 0.36 0.35 0.34 0.33 0.32 0.31 0.30 0.30 0.29 0.29 0.28 0.28 0.27 0.24 0.23 0.24 0.27 0.30 0.33 0.34 0.35 0.36 0.37 0.40 0.41 0.43 0.45 0.47 0.48 0.48 0.49 0.50 0.50 0.50 0.50 0.50
0.48 0.47 0.46 0.45 0.42 0.39 0.37 0.34 0.32 0.32 0.34 0.35 0.36 0.36 0.36 0.36 0.37 0.36 0.36 0.37 0.43 0.46 0.50 0.55 0.58 0.59 0.57 0.57 0.61 0.62 0.64 0.61 0.59 0.56 0.54 0.51 0.48 0.45 0.44 0.41 0.38 0.38 0.38 0.38 0.37 0.35 0.35 0.36 0.36 0.36 0.35 0.33 0.32 0.31 0.31 0.31 0.30 0.29 0.28 0.28 0.27 0.25 0.22 0.22 0.24 0.28 0.31 0.33 0.34 0.35 0.37 0.38 0.41 0.44 0.46 0.47 0.48 0.48 0.49 0.49 0.50 0.51 0.50 0.50 0.51
0.49 0.49 0.49 0.48 0.45 0.44 0.41 0.38 0.35 0.33 0.34 0.35 0.37 0.37 0.37 0.37 0.37 0.37 0.38 0.39 0.40 0.40 0.43 0.46 0.49 0.53 0.55 0.60 0.64 0.65 0.66 0.60 0.58 0.55 0.52 0.50 0.48 0.46 0.41 0.39 0.38 0.38 0.37 0.36 0.36 0.37 0.37 0.37 0.37 0.36 0.35 0.34 0.33 0.33 0.32 0.30 0.29 0.29 0.29 0.28 0.26 0.23 0.22 0.23 0.25 0.29 0.32 0.33 0.34 0.35 0.37 0.40 0.43 0.46 0.48 0.49 0.49 0.49 0.50 0.50 0.51 0.51 0.51 0.51 0.51
0.49 0.49 0.50 0.50 0.48 0.46 0.45 0.43 0.38 0.36 0.36 0.37 0.38 0.38 0.38 0.38 0.38 0.39 0.40 0.38 0.37 0.37 0.38 0.41 0.44 0.48 0.53 0.57 0.60 0.60 0.60 0.58 0.55 0.53 0.51 0.48 0.47 0.45 0.42 0.40 0.38 0.37 0.35 0.36 0.38 0.38 0.37 0.37 0.37 0.36 0.35 0.34 0.34 0.33 0.30 0.29 0.30 0.30 0.29 0.28 0.25 0.22 0.22 0.23 0.26 0.29 0.32 0.33 0.34 0.35 0.37 0.41 0.45 0.48 0.49 0.48 0.49 0.50 0.51 0.51 0.51 0.51 0.52 0.52 0.52
0.49 0.50 0.50 0.50 0.49 0.48 0.46 0.44 0.41 0.38 0.37 0.38 0.39 0.39 0.38 0.38 0.38 0.39 0.38 0.38 0.38 0.37 0.37 0.42 0.45 0.47 0.47 0.50 0.55 0.54 0.53 0.53 0.52 0.50 0.47 0.44 0.42 0.41 0.40 0.38 0.36 0.36 0.36 0.37 0.37 0.37 0.37 0.37 0.37 0.36 0.36 0.35 0.33 0.31 0.29 0.30 0.30 0.30 0.28 0.26 0.23 0.22 0.22 0.24 0.28 0.30 0.32 0.34 0.35 0.35 0.37 0.42 0.46 0.49 0.50 0.49 0.49 0.50 0.50 0.51 0.51 0.51 0.51 0.51 0.51
0.50 0.50 0.50 0.50 0.49 0.48 0.46 0.45 0.43 0.39 0.39 0.40 0.40 0.40 0.38 0.38 0.38 0.38 0.38 0.38 0.38 0.38 0.38 0.40 0.43 0.46 0.48 0.50 0.49 0.50 0.48 0.45 0.43 0.40 0.39 0.39 0.40 0.40 0.38 0.37 0.37 0.37 0.37 0.38 0.39 0.38 0.38 0.37 0.37 0.37 0.35 0.33 0.30 0.30 0.30 0.30 0.30 0.29 0.27 0.24 0.22 0.22 0.23 0.25 0.28 0.30 0.32 0.33 0.35 0.36 0.38 0.42 0.47 0.50 0.50 0.50 0.50 0.51 0.51 0.51 0.51 0.51 0.50 0.50 0.51
0.49 0.50 0.50 0.50 0.50 0.49 0.47 0.46 0.44 0.42 0.41 0.41 0.41 0.41 0.39 0.38 0.38 0.38 0.38 0.38 0.37 0.37 0.37 0.38 0.40 0.44 0.47 0.47 0.46 0.45 0.41 0.39 0.39 0.39 0.39 0.39 0.38 0.38 0.38 0.37 0.37 0.37 0.37 0.39 0.39 0.39 0.38 0.37 0.37 0.35 0.32 0.30 0.30 0.30 0.31 0.30 0.29 0.27 0.25 0.23 0.22 0.22 0.23 0.26 0.28 0.30 0.31 0.33 0.34 0.36 0.37 0.41 0.46 0.49 0.51 0.51 0.51 0.52 0.51 0.51 0.52 0.52 0.52 0.52 0.51
0.47 0.49 0.50 0.50 0.50 0.49 0.47 0.46 0.45 0.44 0.43 0.42 0.42 0.42 0.41 0.41 0.41 0.41 0.41 0.40 0.39 0.38 0.38 0.39 0.39 0.41 0.43 0.44 0.43 0.41 0.39 0.39 0.39 0.39 0.39 0.39 0.38 0.38 0.38 0.38 0.37 0.38 0.40 0.40 0.39 0.39 0.38 0.37 0.35 0.32 0.30 0.30 0.30 0.31 0.31 0.29 0.28 0.25 0.23 0.22 0.22 0.22 0.25 0.27 0.29 0.30 0.31 0.33 0.34 0.36 0.37 0.40 0.44 0.47 0.48 0.50 0.52 0.52 0.53 0.53 0.53 0.53 0.53 0.53 0.52
0.44 0.45 0.46 0.49 0.49 0.48 0.46 0.45 0.45 0.46 0.45 0.44 0.44 0.44 0.42 0.43 0.43 0.42 0.41 0.40 0.40 0.40 0.40 0.41 0.41 0.42 0.42 0.40 0.41 0.44 0.45 0.42 0.39 0.38 0.38 0.38 0.38 0.38 0.39 0.39 0.40 0.42 0.41 0.39 0.39 0.39 0.37 0.35 0.31 0.29 0.29 0.30 0.30 0.30 0.30 0.28 0.25 0.24 0.22 0.21 0.22 0.23 0.25 0.27 0.29 0.30 0.31 0.32 0.34 0.35 0.36 0.38 0.41 0.44 0.48 0.50 0.51 0.52 0.53 0.53 0.53 0.53 0.53 0.52 0.52
0.44 0.44 0.44 0.45 0.46 0.45 0.45 0.45 0.47 0.47 0.46 0.45 0.45 0.45 0.45 0.44 0.42 0.41 0.40 0.40 0.40 0.40 0.41 0.40 0.42 0.43 0.43 0.48 0.49 0.48 0.46 0.44 0.43 0.42 0.43 0.44 0.43 0.41 0.41 0.43 0.45 0.44 0.42 0.42 0.41 0.38 0.33 0.30 0.29 0.30 0.30 0.30 0.31 0.31 0.28 0.26 0.24 0.22 0.21 0.20 0.21 0.23 0.26 0.28 0.29 0.29 0.30 0.31 0.33 0.35 0.35 0.36 0.38 0.41 0.45 0.47 0.50 0.51 0.52 0.53 0.53 0.53 0.53 0.53 0.52
0.45 0.44 0.43 0.43 0.43 0.44 0.45 0.46 0.46 0.47 0.47 0.47 0.47 0.46 0.45 0.44 0.43 0.42 0.40 0.40 0.39 0.39 0.39 0.39 0.40 0.42 0.44 0.46 0.47 0.48 0.46 0.44 0.43 0.42 0.41 0.42 0.43 0.44 0.46 0.46 0.45 0.45 0.44 0.43 0.39 0.33 0.29 0.29 0.30 0.30 0.31 0.32 0.32 0.31 0.27 0.25 0.23 0.21 0.20 0.19 0.20 0.22 0.25 0.27 0.28 0.29 0.30 0.31 0.32 0.33 0.34 0.35 0.37 0.39 0.41 0.44 0.47 0.48 0.50 0.51 0.52 0.52 0.53 0.53 0.53
0.45 0.43 0.42 0.41 0.41 0.41 0.43 0.45 0.46 0.46 0.47 0.47 0.46 0.46 0.45 0.44 0.43 0.42 0.41 0.40 0.39 0.39 0.42 0.43 0.43 0.44 0.45 0.48 0.49 0.46 0.44 0.42 0.41 0.41 0.41 0.43 0.45 0.46 0.46 0.45 0.45 0.44 0.42 0.39 0.34 0.30 0.29 0.30 0.31 0.30 0.31 0.32 0.32 0.29 0.25 0.23 0.23 0.22 0.21 0.20 0.20 0.21 0.24 0.27 0.28 0.29 0.30 0.30 0.31 0.32 0.33 0.34 0.35 0.37 0.38 0.41 0.44 0.46 0.48 0.50 0.51 0.52 0.52 0.53 0.53
0.45 0.44 0.43 0.42 0.41 0.41 0.42 0.44 0.46 0.47 0.46 0.45 0.45 0.44 0.44 0.43 0.42 0.41 0.40 0.39 0.39 0.40 0.40 0.42 0.44 0.46 0.48 0.48 0.46 0.44 0.44 0.44 0.43 0.43 0.44 0.45 0.45 0.45 0.46 0.45 0.44 0.42 0.39 0.35 0.31 0.29 0.30 0.31 0.31 0.31 0.31 0.31 0.29 0.25 0.24 0.23 0.22 0.22 0.22 0.22 0.21 0.22 0.24 0.27 0.29 0.30 0.30 0.30 0.31 0.31 0.32 0.33 0.34 0.36 0.37 0.39 0.41 0.44 0.46 0.48 0.50 0.51 0.52 0.52 0.53
0.47 0.46 0.44 0.43 0.43 0.42 0.42 0.43 0.44 0.44 0.45 0.44 0.44 0.43 0.42 0.41 0.41 0.40 0.39 0.39 0.40 0.42 0.44 0.45 0.43 0.47 0.47 0.46 0.46 0.47 0.47 0.45 0.45 0.46 0.46 0.46 0.46 0.46 0.44 0.42 0.41 0.38 0.36 0.34 0.31 0.30 0.31 0.32 0.32 0.32 0.32 0.31 0.27 0.24 0.23 0.23 0.23 0.23 0.23 0.23 0.23 0.22 0.23 0.26 0.28 0.29 0.30 0.31 0.31 0.31 0.32 0.33 0.34 0.35 0.36 0.37 0.39 0.41 0.43 0.46 0.48 0.50 0.52 0.52 0.53
0.51 0.49 0.47 0.46 0.45 0.44 0.43 0.43 0.42 0.42 0.42 0.42 0.43 0.43 0.43 0.43 0.42 0.41 0.40 0.41 0.42 0.44 0.44 0.44 0.44 0.44 0.45 0.47 0.48 0.46 0.46 0.46 0.47 0.47 0.47 0.46 0.45 0.44 0.41 0.39 0.37 0.36 0.35 0.33 0.32 0.31 0.33 0.34 0.34 0.34 0.33 0.29 0.26 0.24 0.24 0.24 0.24 0.24 0.23 0.24 0.24 0.23 0.22 0.24 0.27 0.29 0.31 0.31 0.31 0.31 0.32 0.32 0.34 0.35 0.36 0.36 0.37 0.39 0.40 0.43 0.46 0.49 0.51 0.52 0.53
0.51 0.50 0.50 0.49 0.48 0.47 0.46 0.45 0.45 0.44 0.44 0.44 0.44 0.44 0.43 0.43 0.44 0.45 0.45 0.45 0.45 0.46 0.45 0.44 0.44 0.45 0.46 0.46 0.46 0.46 0.46 0.47 0.47 0.47 0.46 0.45 0.43 0.39 0.38 0.37 0.36 0.35 0.34 0.33 0.32 0.32 0.34 0.34 0.34 0.33 0.31 0.29 0.26 0.25 0.25 0.25 0.25 0.25 0.25 0.24 0.24 0.23 0.23 0.23 0.26 0.29 0.31 0.31 0.31 0.32 0.32 0.33 0.34 0.35 0.36 0.36 0.36 0.38 0.39 0.41 0.44 0.46 0.49 0.51 0.52
0.49 0.50 0.50 0.50 0.49 0.49 0.50 0.50 0.48 0.47 0.47 0.46 0.45 0.44 0.45 0.45 0.46 0.46 0.47 0.47 0.47 0.47 0.46 0.46 0.46 0.46 0.45 0.45 0.45 0.46 0.46 0.46 0.46 0.45 0.43 0.41 0.39 0.37 0.37 0.37 0.36 0.36 0.34 0.32 0.32 0.32 0.34 0.33 0.33 0.32 0.31 0.29 0.28 0.26 0.26 0.26 0.27 0.27 0.26 0.25 0.25 0.24 0.23 0.23 0.26 0.29 0.30 0.31 0.31 0.32 0.32 0.32 0.33 0.34 0.35 0.35 0.36 0.36 0.37 0.38 0.41 0.44 0.47 0.49 0.51
0.48 0.49 0.49 0.49 0.49 0.50 0.49 0.48 0.49 0.49 0.49 0.48 0.47 0.46 0.46 0.46 0.46 0.47 0.47 0.47 0.46 0.46 0.46 0.47 0.47 0.47 0.47 0.47 0.47 0.47 0.46 0.45 0.44 0.42 0.39 0.37 0.37 0.37 0.37 0.37 0.37 0.36 0.35 0.33 0.33 0.34 0.34 0.33 0.32 0.31 0.30 0.29 0.28 0.27 0.27 0.28 0.28 0.28 0.28 0.27 0.26 0.26 0.24 0.23 0.24 0.28 0.30 0.31 0.32 0.32 0.32 0.32 0.32 0.32 0.33 0.34 0.35 0.35 0.36 0.37 0.39 0.41 0.44 0.46 0.49
Wind_Speed
13 13 13 13 13 13 13 13 12 12 11 11 12 12 12 12 12 11 9 9 9 9 9 8 8 7 7 7 7 7 6 6 6 6 6 6 6 6 6 6 6 6 5 5 5 6 6 6 6 6 6 6 6 6 7 7 7 7 7 7 7 7 8 8 8 8 8 9 9 10 10 10 10 11 11 11 12 12 12 12 13 13 14 14 14
13 12 12 12 13 13 13 12 12 12 12 12 12 12 12 12 13 13 11 10 10 10 10 10 9 9 9 9 8 8 8 8 8 8 8 8 8 8 8 7 7 7 7 7 7 7 7 7 7 7 8 8 8 8 8 8 9 9 9 9 9 9 9 9 9 10 10 10 11 11 11 12 12 12 13 13 13 14 14 14 14 14 15 15 16
12 12 12 12 13 13 14 13 13 12 12 12 12 12 12 12 13 13 13 12 12 11 11 11 11 11 11 11 10 10 10 10 10 10 10 10 10 9 9 9 8 8 8 8 8 8 8 9 9 9 9 9 9 9 9 10 10 10 10 11 10 10 10 11 11 11 11 12 12 13 13 14 14 14 15 15 15 15 16 16 16 16 16 17 17
13 13 13 13 14 14 14 14 14 13 12 12 12 12 12 12 13 13 13 13 13 13 13 13 13 13 13 13 12 12 12 12 11 11 11 11 11 11 11 10 10 10 10 10 10 10 10 10 10 10 10 10 11 11 11 11 11 11 11 12 12 12 12 12 12 12 12 13 13 14 15 15 16 16 17 17 18 18 18 18 18 18 18 18 18
13 14 14 14 14 15 15 15 15 14 13 12 13 13 13 13 14 14 15 15 15 14 14 14 14 14 14 14 13 13 13 12 12 12 12 12 12 12 12 12 12 12 12 12 11 11 12 12 12 12 12 12 12 12 12 13 13 13 13 13 13 13 13 14 14 14 14 14 15 16 16 17 17 18 18 19 20 20 20 20 20 20 20 21 21
14 14 15 15 15 16 16 16 16 15 15 14 14 15 15 15 15 15 16 16 16 16 16 16 15 15 15 15 14 14 14 14 13 13 13 13 13 13 13 13 13 13 13 13 13 13 13 14 14 14 14 14 14 14 14 14 14 14 15 15 15 15 15 15 15 16 16 16 17 17 18 18 19 19 20 21 21 21 22 22 22 22 23 23 23
14 15 15 16 16 17 17 17 17 17 16 17 16 16 16 17 17 17 17 17 18 18 18 17 17 17 17 17 17 16 16 15 15 15 15 15 14 14 14 14 14 14 14 14 15 15 15 16 15 15 16 16 16 15 15 15 16 16 17 17 16 16 17 17 17 18 18 19 19 20 20 21 21 21 22 22 22 22 23 23 23 24 24 25 25
15 15 16 16 17 17 18 18 18 18 18 18 18 18 18 18 19 19 19 20 19 19 19 19 20 20 20 20 19 19 18 18 17 17 17 16 16 16 16 16 16 16 16 17 17 17 17 17 18 18 17 17 17 17 17 17 18 18 18 19 19 19 19 19 20 20 21 21 22 22 23 23 23 23 24 24 24 24 24 25 25 26 26 27 27
16 16 17 17 17 18 18 19 19 19 19 19 19 19 19 20 21 21 21 22 21 21 21 22 22 23 22 22 21 20 20 20 19 19 18 18 18 18 18 18 19 19 19 19 18 18 18 19 19 20 20 20 20 20 20 20 20 20 20 20 21 21 21 22 22 23 23 24 24 24 25 25 25 25 25 25 25 25 26 26 27 28 28 29 29
17 17 18 18 18 19 19 19 20 20 21 21 21 21 22 22 22 23 23 23 24 24 24 24 24 25 25 24 23 22 21 21 21 21 20 20 20 20 20 21 20 20 20 20 20 20 20 20 20 20 21 22 23 23 23 22 22 22 22 22 22 22 23 23 24 24 25 25 25 26 26 27 27 27 27 27 27 27 28 29 29 30 31 31 31
18 19 19 20 20 20 20 21 21 22 22 23 23 23 23 24 24 24 25 25 25 26 26 26 26 26 27 27 27 25 24 23 23 23 22 22 22 22 22 22 22 22 22 21 21 21 21 21 21 21 22 23 23 24 24 24 25 24 23 23 23 24 24 25 25 26 26 26 26 27 27 28 28 28 29 29 29 30 31 32 33 33 33 34 34
20 20 21 21 22 22 22 22 23 23 24 24 25 25 24 25 25 25 26 26 27 27 27 27 27 27 28 28 29 29 28 26 26 25 24 24 24 24 23 23 23 23 22 22 21 21 21 21 21 22 22 22 23 24 24 24 25 25 24 24 25 25 26 27 27 27 27 28 28 28 29 29 30 30 31 32 32 33 34 35 35 36 36 36 37
21 21 21 22 22 23 23 24 24 25 25 25 26 26 26 26 25 25 26 26 27 27 27 27 27 27 28 28 29 30 30 29 28 28 27 26 25 23 23 23 22 22 22 22 22 22 22 22 21 22 22 23 23 24 25 25 25 25 25 26 26 26 27 27 27 28 28 29 29 30 30 31 32 32 33 34 35 36 36 37 37 38 38 38 39
21 21 22 22 23 23 24 24 25 25 26 26 26 26 27 26 26 26 26 26 26 26 26 26 26 26 27 27 28 28 29 30 29 29 27 26 24 23 23 23 23 23 23 22 22 22 22 22 22 23 23 24 25 25 26 25 25 25 26 27 27 27 27 28 28 28 29 29 30 31 32 32 33 34 35 35 36 37 37 38 39 39 40 40 41
23 23 23 23 24 24 24 24 25 25 25 26 27 27 27 28 28 28 28 28 27 27 26 26 26 26 26 26 25 26 26 26 26 25 25 24 23 23 23 23 24 24 24 23 23 22 22 22 23 23 24 25 25 26 26 26 25 26 26 27 27 28 29 29 29 29 30 30 31 32 33 33 34 35 35 36 37 37 38 39 40 40 41 41 41
25 25 26 25 25 26 26 26 26 25 26 26 27 27 28 28 28 28 28 28 28 27 27 26 26 26 25 25 25 25 25 24 23 23 23 23 23 23 23 23 23 23 23 23 23 22 22 22 23 23 24 24 24 25 25 25 25 26 27 27 28 29 30 30 30 30 31 32 32 33 33 34 35 36 36 37 38 38 39 40 40 41 41 42 42
27 27 27 27 27 28 28 28 27 27 27 27 27 27 28 28 28 27 27 27 27 27 27 26 26 26 26 25 25 24 23 23 23 23 23 23 23 23 23 23 23 22 22 22 22 22 22 22 23 23 23 24 23 23 24 24 25 26 27 28 29 30 30 30 31 31 32 33 33 34 34 35 36 37 37 38 38 39 40 40 40 41 41 42 42
29 29 29 28 28 28 28 28 28 28 28 28 27 27 27 27 27 27 26 26 25 25 25 25 25 25 24 24 23 23 23 23 23 23 23 23 23 23 22 22 22 22 22 22 22 22 22 22 22 23 23 23 23 23 24 25 26 27 28 29 30 30 30 31 32 33 33 34 34 35 35 36 37 37 38 38 39 40 40 40 41 41 42 42 42
32 31 31 30 29 28 28 28 28 28 29 29 28 27 27 27 26 26 25 25 24 24 24 24 23 23 23 22 22 22 23 23 23 22 22 22 22 22 22 22 22 22 22 22 22 22 22 22 23 23 23 23 23 24 25 26 26 27 28 29 29 30 31 32 32 33 34 34 35 35 36 37 37 38 39 39 40 40 40 40 41 41 41 42 41
34 33 33 32 32 31 30 30 29 29 30 30 29 28 28 27 26 26 25 25 24 24 24 24 23 23 23 22 22 22 23 23 23 23 22 22 22 22 23 22 22 22 22 22 22 22 23 23 23 23 23 24 24 25 26 26 27 27 28 29 30 31 31 32 33 34 34 35 35 36 37 37 38 38 39 39 39 40 40 40 41 41 41 41 41
36 35 35 34 34 33 32 31 30 30 30 31 31 30 29 28 27 26 26 26 25 25 25 25 24 23 23 23 23 23 23 23 23 23 23 23 23 23 23 22 22 22 22 22 22 23 23 24 24 25 25 25 25 26 26 26 27 28 29 29 30 31 32 32 33 34 35 35 36 36 37 37 37 38 38 39 39 39 40 40 40 41 41 41 40
38 37 36 36 35 34 33 32 31 31 30 31 31 32 31 30 29 28 27 27 26 25 25 25 24 24 24 24 24 24 24 24 24 24 24 24 24 24 23 23 23 23 22 23 23 24 24 25 26 26 26 26 26 26 26 27 28 28 29 29 30 31 32 32 33 34 34 35 35 36 36 37 37 37 37 38 38 38 39 40 40 40 40 40 40
39 39 38 37 37 36 35 34 33 32 32 31 32 32 32 32 31 31 30 29 28 28 27 26 26 25 25 25 25 25 25 25 24 25 24 24 24 24 24 24 24 24 25 25 25 25 26 27 27 27 26 26 26 27 27 27 28 28 29 29 30 31 32 32 33 33 34 35 35 35 35 36 36 36 36 37 37 38 39 39 39 39 39 40 40
42 41 40 40 39 38 38 37 36 35 34 33 33 33 34 34 33 33 32 32 31 31 30 29 28 27 27 27 26 26 26 26 26 25 25 25 25 25 25 25 26 26 26 27 27 27 27 27 27 26 26 26 27 27 27 28 28 28 28 29 30 31 32 32 33 33 34 34 34 34 34 34 35 36 36 37 37 38 38 38 38 38 38 39 39
44 43 43 42 41 40 40 39 38 37 37 36 35 34 35 35 35 34 33 33 33 32 31 31 30 29 29 28 27 27 27 27 26 26 26 26 26 26 26 27 27 27 28 28 28 28 27 26 26 26 26 27 27 27 27 27 28 28 29 31 31 32 32 32 33 33 33 33 33 33 33 34 35 35 36 36 37 37 36 36 37 37 38 38 39
46 45 45 44 43 42 42 41 40 39 38 38 37 37 36 36 35 34 33 33 33 33 33 32 32 31 31 30 29 28 28 28 28 28 27 27 27 27 27 27 27 27 28 28 27 26 26 26 26 26 26 27 27 27 27 28 29 30 31 32 32 32 32 32 32 31 31 31 32 32 33 33 34 35 35 35 35 35 35 36 36 36 37 37 38
46 46 46 45 45 44 43 43 42 41 40 39 39 39 38 38 37 36 35 34 34 34 34 34 34 33 31 30 29 29 30 30 30 30 29 28 28 28 28 28 28 28 28 27 27 27 27 27 27 27 27 27 27 28 29 30 31 31 31 31 31 31 30 30 30 29 29 30 30 31 32 32 33 33 33 34 34 35 35 35 35 36 36 36 36
46 47 47 46 46 46 45 45 44 43 42 41 41 40 40 40 39 38 38 37 36 35 34 34 33 31 30 29 29 30 31 32 32 31 31 30 30 29 29 29 29 29 29 28 28 28 28 28 28 28 28 28 29 30 30 30 31 30 30 30 29 29 28 28 28 28 28 28 29 30 30 31 32 32 33 33 33 34 34 34 35 35 35 35 35
46 47 47 46 46 46 46 46 45 44 44 43 42 41 42 42 41 41 39 38 37 36 35 34 32 31 30 31 31 31 31 31 31 31 31 30 30 30 30 30 30 30 30 29 29 29 29 29 29 29 29 29 30 30 30 30 29 29 28 28 27 26 26 26 26 26 26 27 28 29 30 30 31 31 32 32 33 33 34 34 35 35 34 33 33
45 46 46 46 46 46 46 46 45 45 45 44 43 42 42 42 43 43 42 40 39 38 38 38 37 36 35 35 34 33 32 31 31 31 31 31 31 30 30 30 31 31 30 30 30 30 29 29 29 29 29 29 29 29 29 28 28 27 26 25 24 24 24 24 24 24 25 26 27 28 29 29 30 30 31 32 33 33 34 34 33 32 31 29 28
43 43 44 44 44 45 45 45 45 44 44 44 44 43 42 41 41 41 42 43 42 41 41 40 39 39 39 37 36 34 33 32 32 32 32 32 31 31 31 31 31 31 30 30 30 30 30 30 30 29 29 28 28 27 27 26 25 24 23 23 22 22 22 22 22 24 25 25 26 27 28 28 29 30 31 32 33 33 32 31 29 27 26 25 24
41 41 41 42 43 43 44 44 44 44 43 43 43 43 42 41 40 40 39 40 41 41 41 40 39 39 39 38 37 36 34 34 33 33 32 31 31 31 31 30 30 30 30 30 29 29 29 29 28 28 27 27 26 25 24 23 22 21 21 20 20 20 20 21 22 23 23 24 25 26 27 28 29 30 31 31 31 30 28 26 24 23 22 21 21
38 39 40 40 41 42 42 43 43 43 42 42 42 42 42 42 42 41 39 37 36 37 37 38 38 38 37 37 37 36 35 34 33 32 31 30 30 30 29 29 28 28 28 28 27 27 27 27 26 25 25 24 24 23 22 21 20 19 18 18 18 19 19 20 21 21 22 23 24 25 26 28 29 30 30 29 28 26 24 22 20 19 19 19 19
35 36 37 38 39 40 40 41 41 42 41 41 41 41 40 40 41 41 40 38 36 34 34 34 34 34 34 34 34 34 33 32 30 30 29 28 28 28 27 27 26 26 26 25 25 25 24 24 23 23 22 22 21 20 19 18 17 17 16 16 17 18 18 18 19 20 21 22 24 25 26 28 28 29 28 26 24 22 20 18 18 17 17 18 19
30 31 32 33 35 37 38 39 40 40 40 39 39 39 39 39 38 39 39 39 38 36 35 34 33 32 32 32 32 31 30 29 28 27 26 24 23 23 23 23 24 24 24 23 23 22 22 21 21 20 20 19 18 17 17 16 15 15 15 16 16 16 16 16 18 19 21 22 23 25 26 27 28 27 26 23 21 19 18 16 16 17 17 18 19
26 26 27 27 29 31 34 36 37 38 38 38 37 37 38 38 37 36 36 36 37 37 36 35 34 32 30 29 29 28 27 26 25 24 22 21 20 20 20 21 21 21 21 21 21 20 19 19 19 18 17 17 16 15 14 14 13 14 14 14 14 14 14 16 17 18 20 21 23 25 26 27 27 26 23 21 19 17 16 16 16 17 18 19 19
23 23 23 23 24 25 28 31 33 35 35 35 34 35 35 36 36 35 34 34 34 34 34 33 33 32 30 28 27 27 27 26 25 24 23 22 22 21 20 20 20 19 19 19 19 18 18 17 17 16 15 15 14 13 13 13 12 12 12 12 12 13 14 15 16 18 19 21 22 24 26 26 26 24 21 19 17 16 15 16 17 18 18 19 19
20 21 21 21 21 21 22 25 28 31 31 31 31 31 32 32 33 33 33 32 32 32 32 31 31 31 31 31 31 30 29 28 27 26 26 25 24 23 21 20 19 19 18 18 18 17 16 16 15 14 14 13 13 12 12 11 11 11 11 11 11 12 13 14 15 17 19 20 22 23 25 25 24 22 19 17 16 15 15 16 17 17 18 18 18
17 17 18 18 18 18 19 20 23 26 27 27 27 28 28 28 29 30 30 31 31 31 32 31 31 31 31 32 32 31 30 29 28 28 27 26 25 24 22 21 19 19 18 17 17 16 15 14 14 13 13 12 12 11 10 10 9 9 9 10 10 11 12 13 15 16 18 19 21 23 24 24 22 20 19 17 16 15 15 16 16 17 17 18 18
14 13 14 15 15 16 16 17 20 23 23 23 23 24 24 25 26 26 28 29 29 30 30 30 31 31 31 32 32 31 30 29 28 27 26 25 24 23 22 21 19 18 17 16 15 15 14 14 13 13 12 12 11 10 9 9 8 9 9 9 9 10 11 13 14 16 17 19 20 22 23 23 22 20 18 17 16 15 15 15 15 16 16 17 18
12 10 9 10 11 12 13 15 18 21 21 20 21 21 22 22 22 23 24 25 26 26 27 28 28 29 30 30 29 29 28 27 26 26 25 24 23 22 21 19 18 17 16 15 15 14 14 13 12 12 11 11 10 9 8 8 8 8 8 8 8 9 11 12 14 15 17 18 19 21 22 22 22 20 18 17 16 14 14 14 14 15 16 17 17
14 12 8 6 6 7 9 12 16 18 19 19 19 19 19 20 20 20 20 21 21 22 23 24 25 26 26 26 26 25 23 23 23 23 22 22 21 20 18 17 16 15 15 14 14 14 13 12 12 11 10 10 9 8 8 8 7 7 7 7 8 9 10 11 13 15 16 17 19 20 21 22 21 20 18 17 16 15 14 14 14 14 15 16 15
16 15 11 6 2 2 4 8 12 15 17 17 17 17 17 17 17 17 18 18 18 19 20 20 22 23 24 24 24 24 21 20 20 20 19 19 18 17 17 16 15 14 14 14 13 12 12 12 11 11 10 9 8 8 8 7 7 6 7 7 8 8 9 11 12 14 16 17 19 20 20 21 21 20 19 17 16 15 14 13 13 14 14 15 14
16 16 14 10 6 2 3 6 9 12 14 14 14 15 15 15 15 16 16 16 16 16 17 18 19 20 21 22 23 23 21 19 19 19 18 17 17 16 16 14 13 13 13 13 12 12 12 11 11 10 10 9 9 8 7 7 6 6 6 7 7 8 9 10 12 14 15 17 18 19 20 20 20 20 19 18 17 16 15 14 13 13 13 14 14
16 16 16 14 11 7 5 6 8 10 11 12 12 13 13 13 14 14 14 14 15 15 15 16 17 18 20 21 23 22 20 18 18 18 17 17 17 16 14 13 13 13 12 12 11 11 11 11 10 10 10 9 8 8 7 6 6 6 6 7 7 8 9 10 12 13 15 16 18 19 19 20 20 20 20 19 19 17 16 14 14 13 13 13 13
16 16 16 16 15 13 10 8 7 8 9 10 10 11 11 11 12 12 13 14 15 14 14 14 15 17 19 21 21 20 18 17 16 17 17 17 16 15 13 13 12 12 12 12 11 11 11 10 10 10 10 9 8 8 7 7 6 6 6 6 7 8 9 10 12 13 15 16 17 18 19 19 20 20 20 20 20 18 17 15 14 14 13 12 12
16 16 16 16 16 15 14 11 10 9 8 9 9 9 10 10 11 12 13 14 14 14 14 14 15 16 18 19 18 17 17 16 16 16 16 16 14 13 13 13 12 12 12 12 11 11 10 10 10 10 9 9 8 8 7 7 6 6 6 7 7 8 9 10 12 13 14 15 16 17 18 19 19 20 20 20 20 19 18 17 15 14 13 12 12
17 17 17 16 16 15 15 14 13 12 10 10 10 10 11 11 12 12 13 13 13 13 14 15 15 16 16 17 17 17 17 16 16 16 15 15 14 13 13 12 12 12 12 11 11 10 10 10 10 9 9 9 8 8 7 7 6 6 6 7 8 9 10 11 12 13 14 15 16 17 17 18 18 19 20 20 20 20 19 18 16 15 13 12 11
18 18 18 17 17 16 15 15 14 13 13 12 12 12 12 12 12 12 12 12 13 13 14 14 15 15 16 16 16 16 16 16 15 15 14 14 13 13 12 12 12 12 12 11 11 10 10 10 9 9 9 9 8 7 7 7 6 6 7 7 8 9 10 11 12 12 14 15 16 16 17 17 18 18 19 20 20 20 20 19 18 16 14 12 11
17 17 18 18 18 17 16 16 15 14 14 14 13 13 12 12 12 12 13 13 14 14 14 14 15 15 15 15 15 15 14 14 14 14 13 13 13 12 12 12 12 12 11 11 10 10 10 10 9 9 9 9 8 7 7 7 6 7 7 8 9 10 11 11 11 12 13 14 15 16 16 17 17 18 18 19 19 20 20 20 19 17 15 13 12
16 16 16 16 16 16 16 16 16 16 15 15 15 14 14 13 13 13 14 14 14 14 14 14 14 14 13 13 13 13 13 13 13 13 12 12 12 12 12 11 11 11 11 10 10 10 9 9 9 9 9 8 8 7 7 7 7 8 8 9 9 10 11 11 11 12 13 14 15 15 16 16 17 17 18 18 19 19 19 20 19 18 17 15 13
Wind_Direction
254 259 261 260 258 257 261 262 261 265 261 249 244 244 246 243 232 228 230 229 229 225 221 222 222 220 220 220 220 220 219 218 217 217 216 216 218 218 219 221 222 223 225 228 233 236 237 239 241 247 251 254 258 262 265 268 271 274 277 280 283 286 289 291 292 291 292 294 296 298 300 302 304 306 306 305 306 305 304 303 302 302 301 298 297
254 258 261 262 261 260 260 258 258 263 261 250 245 245 248 244 230 226 230 229 228 226 222 224 225 225 225 225 226 227 227 228 230 232 233 233 233 233 232 231 232 235 237 239 243 247 248 248 250 254 258 259 262 264 265 268 270 273 276 277 279 282 284 286 288 288 289 290 292 294 296 298 300 302 304 304 304 304 302 302 302 302 302 300 297
254 258 261 263 264 262 260 258 258 262 260 252 245 243 245 243 231 226 230 230 230 230 229 229 228 228 229 230 232 234 235 238 239 240 241 241 240 240 239 238 238 240 242 244 247 250 253 255 257 260 263 264 266 268 268 269 270 272 275 276 276 279 282 284 286 287 287 288 289 291 293 295 296 298 300 300 300 301 299 299 299 299 300 299 296
258 259 261 263 264 262 260 260 259 259 255 249 245 241 241 241 235 230 230 231 232 234 235 235 234 234 234 235 237 239 240 240 240 240 241 241 241 241 241 242 243 245 246 248 250 253 256 258 260 263 266 267 268 269 270 270 272 274 274 275 276 279 282 284 285 286 287 288 288 290 291 293 293 295 297 296 296 296 296 296 296 296 297 298 296
260 260 261 261 261 261 260 260 258 255 251 247 246 243 240 240 240 237 235 234 235 236 237 238 238 238 236 235 237 239 240 241 241 240 240 241 242 243 244 245 246 248 250 251 253 255 257 259 262 264 265 267 268 269 270 270 272 275 276 276 277 280 283 285 285 286 287 287 288 289 291 291 292 293 295 295 294 293 294 293 293 293 295 296 295
263 261 261 262 261 260 258 258 257 254 251 249 249 247 245 242 242 241 239 239 240 240 239 239 240 239 238 238 239 241 242 243 243 242 241 243 244 245 247 248 249 251 253 255 256 258 260 262 264 265 266 268 269 270 271 272 274 275 275 276 278 280 283 284 285 286 286 287 287 288 289 290 291 291 293 294 293 292 293 292 291 291 293 294 294
265 264 264 263 262 259 257 256 256 255 253 252 252 251 248 244 243 243 243 242 243 245 244 242 241 241 242 243 243 244 244 244 244 244 245 246 246 246 248 250 252 254 256 258 260 261 263 264 264 265 268 269 269 269 271 275 277 276 275 275 277 280 282 284 285 285 285 286 287 288 289 290 290 290 291 292 291 291 292 292 291 291 291 292 292
268 267 266 264 261 260 258 257 257 257 257 256 254 252 248 246 246 247 247 246 246 247 247 247 246 245 246 247 247 247 246 245 244 245 246 248 249 250 251 253 255 256 258 260 262 262 264 264 264 265 265 266 267 269 272 275 277 277 275 274 275 278 281 283 283 284 284 285 286 288 289 290 290 291 291 291 291 291 291 291 291 291 292 292 291
270 269 267 265 262 261 260 258 258 259 259 258 255 253 250 249 249 249 249 249 248 248 249 250 249 248 247 248 250 249 247 244 243 244 247 250 251 253 255 257 258 259 260 261 261 263 265 265 264 264 264 264 267 269 271 273 275 277 277 276 275 277 279 281 282 284 284 285 286 288 289 290 291 291 291 291 291 291 291 291 291 292 292 292 291
272 271 270 267 265 263 261 260 259 259 259 259 258 256 254 252 251 251 250 250 250 250 251 251 251 251 250 249 249 251 249 245 243 244 247 251 254 256 257 258 259 260 261 262 263 264 265 266 265 264 264 265 266 267 269 272 274 276 278 278 278 278 279 280 282 284 284 285 286 288 289 290 290 291 291 291 291 291 291 291 292 292 292 292 291
274 273 273 271 269 266 264 261 260 259 260 260 260 259 257 256 254 253 252 251 252 252 252 251 252 254 253 250 248 250 251 248 245 246 248 252 255 257 258 258 258 259 261 263 263 263 263 264 265 266 266 267 268 268 270 272 274 275 277 278 279 280 281 281 282 283 284 285 286 288 289 290 290 290 290 290 290 290 290 291 291 291 291 291 291
275 275 274 273 272 269 267 264 261 260 260 260 260 260 259 258 256 255 254 254 254 253 253 253 254 254 254 252 250 250 251 249 247 248 251 254 257 257 257 258 257 258 259 261 262 261 262 263 266 268 268 269 270 272 273 273 273 274 276 278 280 281 282 282 282 283 284 285 286 287 289 289 289 289 289 290 290 290 290 290 290 290 290 289 289
277 276 275 274 273 271 269 266 263 261 260 260 261 260 259 258 257 256 256 255 254 254 254 254 255 254 253 253 253 252 250 248 248 251 253 255 255 256 256 256 256 256 258 260 260 261 262 263 266 269 270 270 272 274 275 274 274 274 276 278 279 280 282 282 283 284 284 285 286 287 288 289 289 288 289 289 289 289 290 290 290 290 289 288 288
279 278 277 275 274 273 270 268 265 263 262 261 260 260 259 258 258 258 257 256 254 254 254 253 254 254 254 254 254 254 251 249 250 252 252 251 250 252 254 256 256 257 259 259 259 260 262 264 267 269 271 271 272 274 275 274 273 274 275 276 278 280 281 283 284 285 285 285 286 287 287 288 288 288 288 288 289 289 289 289 289 289 288 288 288
278 278 278 277 275 273 272 269 266 264 263 262 260 260 259 259 259 259 258 256 255 254 253 252 252 253 254 253 253 253 252 250 249 248 245 244 246 251 255 256 256 258 260 260 261 263 265 268 270 272 272 273 273 274 274 273 273 274 275 276 278 280 282 283 284 285 285 286 287 287 288 287 288 288 288 289 289 289 289 289 288 288 288 287 287
277 277 277 276 275 273 272 269 267 265 264 263 261 260 260 260 259 259 258 256 254 253 252 252 252 252 252 253 252 252 252 249 244 241 241 244 249 253 255 256 256 258 259 261 263 265 268 271 273 274 275 275 275 275 274 274 274 275 276 278 280 281 283 284 285 286 286 287 288 288 288 288 288 289 289 290 289 289 289 289 289 288 288 288 288
276 276 276 275 274 272 270 269 267 265 264 263 262 261 260 259 258 258 256 255 253 252 251 251 251 251 250 251 251 250 248 244 241 241 243 247 251 253 254 255 257 258 259 261 263 266 269 272 273 275 276 277 277 277 276 276 276 276 278 279 281 282 283 284 285 286 287 287 288 288 288 288 288 289 289 290 289 290 290 289 289 289 289 288 288
274 274 274 274 273 271 270 268 266 265 263 262 261 260 259 258 257 256 254 253 252 251 250 249 248 248 248 249 248 247 245 244 244 244 245 247 250 252 254 255 256 257 259 261 263 266 269 272 274 276 277 278 278 277 277 277 278 279 280 281 282 283 283 284 285 286 287 287 287 287 288 288 289 289 289 290 290 290 290 290 290 290 289 289 288
274 272 271 271 271 270 269 268 266 264 262 261 260 258 257 256 255 254 252 250 249 249 248 247 246 246 247 248 247 246 245 245 245 245 245 247 250 252 254 255 256 257 258 260 263 266 269 272 276 278 278 279 279 278 278 279 279 280 281 281 282 283 283 284 285 286 286 287 287 288 288 289 289 290 290 290 290 290 290 290 290 290 290 289 289
274 272 271 269 268 268 268 267 266 264 262 260 258 256 256 255 254 252 250 249 248 248 247 246 246 246 246 247 247 247 246 246 245 245 246 249 251 253 254 255 255 256 258 260 263 265 268 272 276 278 280 280 281 280 280 281 281 281 281 282 283 283 284 285 286 286 287 287 288 289 289 289 290 290 290 291 291 291 290 290 290 289 289 289 288
273 272 271 269 268 267 266 266 265 263 261 259 256 253 253 253 251 250 249 247 247 246 246 245 246 246 246 246 247 248 248 248 247 248 249 250 251 253 253 254 255 256 258 261 264 266 269 272 275 278 280 281 281 281 281 282 282 282 283 284 284 285 285 286 287 287 288 288 289 289 289 290 290 290 291 291 291 291 291 290 289 289 289 288 288
272 271 270 269 268 267 265 264 263 261 260 258 255 252 251 250 249 249 248 246 245 245 245 245 245 246 246 247 247 248 249 250 250 250 250 250 251 252 253 254 255 257 260 263 266 268 271 273 276 278 280 280 281 281 281 282 283 284 285 286 286 286 287 287 288 289 289 289 289 290 290 290 291 291 292 292 292 291 291 291 290 290 289 288 288
271 270 269 268 267 265 264 263 261 259 258 257 255 253 250 249 248 248 248 246 245 245 245 245 245 246 246 247 248 248 249 250 251 252 251 251 251 252 253 254 256 260 263 265 267 270 272 275 277 278 279 279 280 281 282 283 284 285 286 287 287 288 288 289 289 290 290 290 290 291 291 291 292 292 292 292 292 292 292 292 291 291 290 289 288
269 268 267 267 265 264 263 262 260 258 257 256 256 254 251 249 248 247 247 247 246 246 245 245 245 245 246 247 249 249 249 250 251 251 251 251 252 253 254 256 259 262 264 266 269 271 273 275 276 277 278 279 281 282 283 283 284 285 286 287 288 289 289 290 290 291 291 291 292 292 292 292 292 293 293 293 293 293 293 292 292 291 291 290 289
268 267 266 265 264 263 262 260 259 258 256 255 254 253 251 249 248 247 246 246 246 245 244 244 244 245 247 249 249 248 249 249 249 250 251 252 253 255 256 258 261 263 266 268 270 272 274 274 275 277 278 279 280 281 282 283 285 286 287 288 289 290 291 291 292 292 292 292 292 293 293 293 293 293 293 294 294 293 293 293 293 292 292 292 291
267 266 265 264 263 262 261 260 259 257 256 254 253 252 251 250 248 247 246 245 244 243 243 243 244 247 249 249 248 247 248 249 251 252 253 254 255 256 258 260 262 265 268 270 271 272 273 274 276 277 279 279 279 280 282 284 286 288 289 289 290 291 291 292 292 292 292 293 293 293 293 294 294 295 295 295 295 295 295 294 294 294 294 293 293
266 265 264 263 262 261 260 259 258 257 255 254 252 250 249 248 247 246 244 243 244 245 246 246 247 247 247 246 246 247 249 251 252 253 254 255 256 257 259 261 263 266 268 269 270 272 273 275 276 278 279 279 280 281 283 285 287 288 289 290 290 291 291 291 292 292 292 293 294 294 295 295 296 296 296 296 296 296 296 295 295 295 295 295 294
266 264 263 262 261 259 258 257 256 255 254 253 252 250 248 247 247 246 245 244 244 246 247 246 244 242 241 243 247 249 250 251 252 253 254 255 257 259 260 262 264 266 267 269 270 272 273 274 275 277 278 279 280 282 284 286 287 288 289 289 290 290 290 291 291 292 293 294 295 296 297 297 297 297 297 297 297 297 297 297 296 296 296 296 295
266 265 263 261 260 259 257 256 255 253 252 251 251 250 248 247 246 246 245 244 244 244 244 243 241 240 242 246 248 249 250 251 251 252 254 256 258 260 261 263 264 266 267 269 270 271 272 274 275 276 278 279 281 283 284 286 287 288 288 288 288 289 290 291 293 294 295 296 297 298 299 299 299 298 298 298 298 299 299 299 298 297 297 296 296
267 265 263 261 260 258 257 256 254 253 251 250 249 249 248 247 246 245 245 244 245 245 245 245 244 245 247 248 248 249 251 251 251 252 255 257 260 262 264 265 266 266 267 269 270 271 272 273 275 276 277 279 281 283 284 285 286 286 286 287 288 289 291 293 294 296 297 298 299 300 301 300 300 300 300 301 301 302 301 300 298 298 297 297 297
268 266 263 261 259 257 256 255 253 252 251 250 248 247 246 246 245 245 245 245 245 246 246 246 245 245 247 247 247 249 251 251 251 253 255 258 261 263 265 266 266 266 266 268 269 270 271 273 274 275 277 279 281 282 283 284 284 284 285 286 288 290 292 294 296 298 299 300 301 302 302 302 302 303 303 304 303 303 302 301 299 298 298 298 298
269 267 264 262 259 257 255 253 252 250 249 249 247 245 244 244 244 244 245 245 245 245 245 244 244 244 245 246 246 247 249 250 251 253 256 258 261 263 264 265 264 264 265 267 269 270 271 272 273 275 277 278 280 280 281 281 281 282 284 286 289 291 293 296 298 300 301 302 303 305 305 305 305 306 306 306 305 304 303 301 300 299 299 300 301
269 267 265 262 260 257 254 252 250 249 247 247 246 245 243 242 242 242 243 244 244 244 243 242 243 243 244 245 246 247 248 249 250 252 255 257 259 261 262 263 262 262 264 267 269 269 270 271 273 274 275 277 277 277 277 277 278 281 284 286 289 292 294 297 300 302 304 305 307 308 309 309 310 310 310 309 307 305 303 301 300 300 301 302 303
271 268 265 262 259 257 254 251 249 247 246 245 244 243 243 242 241 240 240 240 240 241 240 240 241 242 244 245 245 245 245 246 247 249 252 255 258 259 260 260 260 262 264 267 268 268 269 270 271 272 273 273 273 273 273 275 277 280 283 286 290 293 296 299 302 305 307 309 311 312 313 314 314 314 313 311 309 306 303 302 302 303 303 304 305
274 271 267 263 259 256 253 250 247 245 244 243 242 241 241 240 239 239 238 237 236 236 238 239 240 243 246 246 243 241 241 241 242 244 246 249 253 255 257 258 259 261 263 265 266 266 267 268 268 269 269 269 268 268 270 272 275 279 283 288 291 295 298 302 305 308 310 312 314 317 318 318 318 317 315 312 309 307 305 303 303 304 304 305 307
277 273 270 266 261 256 252 248 245 243 242 241 240 239 239 238 237 237 236 235 235 235 237 239 241 242 243 241 235 231 230 231 233 236 239 243 248 253 257 259 260 260 262 262 263 263 264 265 265 264 264 264 263 264 267 270 274 279 284 289 292 296 301 304 308 311 314 316 318 321 323 323 322 320 317 313 310 307 305 304 304 304 305 306 308
280 275 271 268 263 257 252 247 242 239 238 239 238 237 236 235 235 234 234 234 234 234 235 237 236 235 232 228 225 224 224 228 233 238 243 246 250 255 259 260 260 260 260 260 260 261 262 261 260 260 259 259 260 262 265 268 273 278 284 289 293 298 302 307 311 315 318 320 323 325 326 326 325 323 319 315 311 309 307 306 306 306 306 307 308
285 277 271 267 262 257 253 247 240 235 234 235 235 234 233 231 231 231 232 232 232 231 231 231 230 229 226 225 226 228 230 233 239 244 248 249 250 253 255 256 256 258 258 258 258 258 257 256 255 254 254 255 257 259 262 266 272 277 283 289 294 299 304 309 315 319 322 324 327 329 330 330 329 326 323 318 314 312 310 309 309 309 309 311 311
295 284 274 266 259 254 252 246 236 229 228 229 230 229 228 227 227 228 229 230 230 229 229 229 229 228 227 227 227 229 232 236 240 243 245 246 247 248 249 251 252 254 254 254 254 253 250 249 250 250 250 251 253 254 258 263 269 276 283 290 294 300 307 313 318 322 326 328 330 333 334 334 333 330 327 322 318 315 313 312 312 313 314 315 314
314 299 282 268 258 251 248 242 231 223 220 222 223 223 223 223 224 225 227 227 228 228 228 229 230 230 229 229 230 231 233 237 239 240 240 241 242 242 244 247 248 249 249 248 247 245 245 245 246 245 245 245 246 248 253 260 268 275 283 289 294 302 310 317 322 326 330 332 334 336 338 339 338 335 331 327 322 318 317 317 317 318 318 318 317
341 326 301 276 259 251 245 235 223 216 215 216 217 217 218 219 221 223 224 225 226 227 228 229 230 230 229 229 230 230 232 235 236 236 236 236 236 237 239 241 242 242 242 241 239 239 241 241 240 238 237 237 239 244 251 258 267 275 281 287 296 305 313 320 326 330 333 335 337 339 341 343 342 339 336 333 328 324 321 321 322 322 323 322 321
1 355 339 304 269 251 237 222 212 209 210 211 212 213 215 216 218 220 221 222 224 225 225 227 228 228 226 224 224 225 228 230 230 228 227 228 229 230 231 232 233 235 235 234 234 236 237 235 231 229 228 229 234 241 249 257 266 272 279 289 300 309 316 322 329 333 336 337 340 342 344 345 345 344 341 338 334 330 326 325 326 327 327 327 327
12 12 9 2 330 245 211 202 201 202 203 205 207 210 212 214 215 216 217 219 220 222 222 223 223 222 219 217 216 218 220 221 218 216 217 219 221 222 223 225 228 229 228 228 230 231 229 226 223 221 222 225 232 241 248 255 261 269 279 292 302 310 318 325 331 336 338 340 342 344 346 348 348 348 346 343 339 336 332 330 329 330 331 331 331
23 24 27 31 37 71 151 172 184 191 194 198 202 205 207 210 212 213 214 214 215 215 216 216 213 211 210 210 210 210 212 213 212 213 214 215 215 216 219 222 223 222 222 222 224 222 219 217 216 216 218 224 232 239 245 250 256 267 281 293 303 312 321 328 333 337 341 343 344 346 348 349 350 351 350 347 344 340 338 336 332 331 332 333 333
33 35 38 43 49 64 103 142 162 174 182 189 194 198 203 207 208 209 210 208 206 204 204 203 202 203 203 203 202 203 205 208 209 209 208 207 209 212 216 217 217 216 216 216 215 213 212 212 213 215 219 225 231 236 238 242 252 266 281 294 305 314 322 329 333 337 340 343 345 347 349 350 352 352 352 351 349 346 343 340 336 332 331 332 333
39 42 45 49 54 63 79 106 134 154 167 176 183 189 195 199 201 201 199 195 193 192 193 194 194 195 194 192 193 196 200 202 202 201 200 202 206 209 211 211 211 211 210 208 207 208 209 211 213 216 221 225 228 230 232 239 250 265 281 296 307 316 323 329 333 336 339 342 345 347 349 351 352 353 353 353 352 350 347 343 339 335 332 331 332
41 45 49 53 58 63 72 85 102 122 140 154 163 168 172 175 176 177 177 178 180 183 184 183 184 184 184 185 188 191 193 194 194 195 197 201 203 205 205 206 206 205 204 204 206 208 210 212 215 218 220 222 223 225 231 240 253 266 281 297 308 317 323 328 332 335 338 341 343 346 348 350 352 354 354 354 354 354 351 347 342 338 333 331 330
45 48 51 55 59 63 69 76 85 97 111 124 134 140 144 147 151 155 162 168 173 175 176 177 178 179 180 182 184 185 186 188 190 193 196 199 201 201 202 203 203 202 203 205 207 208 210 213 215 217 217 218 219 224 233 244 256 269 283 297 308 317 323 326 329 333 337 340 342 344 347 349 351 353 354 355 356 356 354 351 348 342 337 333 332
50 52 54 57 60 64 68 73 79 87 96 105 113 119 125 132 138 145 152 158 161 164 167 169 172 173 174 177 179 181 184 188 191 193 195 196 197 198 199 200 201 201 203 204 205 206 208 211 214 215 215 216 220 228 237 248 260 273 285 296 307 316 321 323 326 331 335 339 341 343 345 348 350 352 353 355 357 357 357 355 352 348 344 339 335
50 53 56 58 62 65 69 74 79 84 90 97 105 111 117 124 131 137 141 146 149 152 156 159 163 166 169 173 177 181 186 190 192 192 192 193 194 195 196 198 198 198 199 199 200 203 207 210 213 214 216 219 224 233 242 252 264 276 287 295 305 314 319 320 322 327 333 336 340 342 344 346 349 351 353 354 356 358 359 358 356 353 351 347 342
49 52 55 59 62 65 69 73 79 84 88 94 100 106 112 118 124 130 135 139 143 148 151 155 159 163 168 173 178 182 185 187 187 186 186 187 189 190 192 193 193 193 194 195 199 204 210 214 217 218 220 224 231 239 248 257 268 279 288 294 302 310 317 318 320 324 329 333 336 340 343 345 347 350 352 353 355 357 359 0 360 358 356 353 350